Regional Weather Roundup
Issued by NWS Albany, NY

Home | Current Version | Previous Version | Text Only | Print | Product List | Glossary On
Versions: 1 2 3 4 5 6 7 8 9 10 11 12 13 14 15 16 17 18 19 20 21 22 23 24 25 26 27 28 29 30 31 32 33 34 35 36 37 38 39 40 41 42 43 44 45 46 47 48 49 50
000
ASUS41 KALY 040610
RWRALY

NEW YORK STATE HOURLY WEATHER ROUNDUP
NATIONAL WEATHER SERVICE ALBANY NY
200 AM EDT TUE AUG 04 2015

NOTE: "FAIR" INDICATES FEW OR NO CLOUDS BELOW 12,000 FEET WITH NO
SIGNIFICANT WEATHER AND/OR NO OBSTRUCTIONS TO VISIBILITY.

NYZ032-033-038>043-046>054-057>066-NYZ062>081-040700-
EAST


CITY           SKY/WX    TMP DP  RH WIND       PRES   REMARKS
ALBANY         LGT RAIN  68  65  90 S3        29.82R
GLENS FALLS    MOCLDY    65  64  97 CALM      29.81S
POUGHKEEPSIE   CLOUDY    78  62  57 SW10      29.80R
MONTGOMERY     CLOUDY    71  62  73 W6        29.81S
WHITE PLAINS   MOCLDY    72  64  76 CALM      29.83R
ISLIP          MOCLDY    77  74  90 SW16      29.82S
NEW YORK CITY  MOCLDY    81  64  56 SW10      29.81R
CENTRAL PARK   PTCLDY    80  64  58 VRB3      29.85R
$$

NYZ005>009-017-018-044>046-055-056-040700-
CENTRAL


CITY           SKY/WX    TMP DP  RH WIND       PRES   REMARKS
FULTON         PTCLDY    61  58  90 CALM      29.80R
SYRACUSE       PTCLDY    65  63  93 CALM      29.79S
ROME           CLEAR     62  60  93 CALM      29.82S
ELMIRA         MOCLDY    61  60  97 CALM      29.82F
BINGHAMTON     CLOUDY    66  58  75 NW3       29.84F
MONTICELLO     CLOUDY    66  64  94 CALM      29.87R
$$

NYZ026>034-041>043-040700-
NORTH


CITY           SKY/WX    TMP DP  RH WIND       PRES   REMARKS
WATERTOWN      MOCLDY    63  58  83 S5        29.78R
FORT DRUM      NOT AVBL
MASSENA        CLEAR     61  58  90 SW6       29.76R
SARANAC LAKE   PTCLDY    56  56 100 SW3       29.81S
PLATTSBURGH    CLEAR     62  60  93 CALM      29.77R
$$

NYZ001>004-010>016-019>021-040700-
WEST


CITY           SKY/WX    TMP DP  RH WIND       PRES   REMARKS
NIAGARA FALLS  CLOUDY    64  55  72 W3        29.80S
BUFFALO        PTCLDY    66  57  72 S6        29.81S
DUNKIRK        CLEAR     62  60  93 S5        29.83S
JAMESTOWN      MOCLDY    61  57  88 SW5       29.88R
WELLSVILLE     CLOUDY    64  56  75 W5        29.90R
ROCHESTER      PTCLDY    65  61  87 CALM      29.81R
PENN YAN       MOCLDY    66  64  93 SW3       29.83S
$$

             KEY
       WCI = WIND CHILL INDEX
       VSB = VISIBILITY
       HX  = HEAT INDEX
$$


USA.gov is the U.S. government's official web portal to all federal, state and local government web resources and services.